Location: Chena
(64.8152°N, 147.9227°W)
Time: 13:29:34
(UTC+00:00)

N. Korean satellite - Pass Details

Date: 22 January 2021
Orbit: 451 x 503 km, 97.2° (Epoch: 28 February)

Event Time Altitude Azimuth Distance (km) Brightness Sun altitude
Rises 02:37:35 0° 182° (S) 2,589 10.7 -9.1°
Reaches altitude 10° 02:39:46 10° 190° (S) 1,703 9.9 -9.3°
Maximum altitude 02:43:14 40° 262° (W) 747 8.2 -9.6°
Drops below altitude 10° 02:46:42 10° 333° (NNW) 1,691 9.3 -10.0°
Sets 02:48:51 0° 341° (NNW) 2,567 10.2 -10.2°
